Cloud_Cover
26 5 5 5 5 5 5 5 5 5 10 5 5 5 6 7 5 4 5 5 5 5 5 5 0 0 0 0 0 0 0 5 65 22 100 99 100 91 100 66 47 85 100
5 5 5 5 5 5 6 24 18 10 5 5 5 74 14 91 95 90 67 52 42 10 5 0 0 0 0 0 0 0 0 5 40 48 100 100 100 69 100 95 100 84 100
5 5 5 5 5 5 27 17 5 5 5 53 53 13 14 80 76 74 83 100 90 5 0 0 0 0 0 0 0 0 3 5 28 86 96 100 100 100 100 99 100 100 100
4 5 5 5 28 52 11 5 30 38 42 20 57 33 70 78 35 67 98 94 6 1 0 0 0 0 0 0 3 5 5 5 5 77 62 100 100 100 100 100 100 100 100
4 5 5 5 13 22 20 32 26 60 84 86 51 22 5 5 6 16 5 5 2 0 0 0 0 0 0 5 5 5 5 5 5 11 99 100 100 100 100 100 100 100 100
5 32 6 17 5 9 39 80 67 31 71 30 28 5 5 5 5 5 3 4 0 0 0 0 0 3 5 5 5 5 5 5 5 63 21 81 100 100 100 100 100 100 100
5 5 42 5 7 68 98 48 38 17 73 83 5 5 5 5 3 4 20 0 0 0 0 0 3 5 5 5 5 5 5 5 5 65 90 84 99 100 100 100 100 100 100
5 7 18 80 93 90 73 94 91 89 10 5 22 5 5 5 5 5 4 0 0 0 0 5 0 5 6 19 5 5 61 84 5 95 99 26 100 100 100 100 100 100 100
5 14 71 100 100 100 88 78 33 6 41 40 5 5 5 46 5 2 0 0 0 0 0 1 5 5 58 92 30 81 87 93 9 68 100 20 94 100 100 100 100 100 100
5 5 52 95 84 91 23 73 42 97 81 21 7 6 5 5 14 0 0 0 0 0 4 6 5 37 88 100 100 100 100 99 82 62 92 62 21 100 100 100 100 100 100
5 5 59 43 98 86 83 25 54 82 57 34 86 37 5 6 5 0 0 0 0 1 5 99 97 100 100 100 100 100 100 98 95 100 99 88 6 74 100 100 100 100 100
5 5 5 83 100 47 28 49 53 54 95 70 92 70 5 5 0 0 0 0 0 5 5 84 100 100 100 100 100 100 100 100 97 100 99 90 90 5 57 100 100 100 100
5 5 5 44 22 26 89 86 40 98 89 100 43 53 36 2 0 0 0 0 5 5 5 5 49 100 81 100 100 100 100 100 100 96 100 94 92 100 29 95 100 100 100
5 5 5 38 60 78 100 97 100 100 98 79 43 30 8 0 0 0 0 5 5 5 5 5 5 5 7 74 84 86 100 100 99 100 100 100 94 99 100 63 24 99 100
5 5 5 13 92 55 100 100 100 100 100 94 88 12 1 0 0 0 0 5 5 5 5 5 5 5 46 89 100 99 100 100 100 100 100 97 100 99 100 99 93 56 100
5 5 18 63 82 97 100 100 100 97 100 100 43 3 0 0 0 2 5 5 5 5 5 5 51 79 95 100 100 100 100 100 100 100 96 82 100 100 100 100 100 100 100
5 5 5 43 72 98 100 100 100 100 100 71 5 0 5 5 0 4 5 5 5 5 10 58 100 100 96 100 100 100 100 100 100 100 100 100 95 100 100 100 100 100 100
5 5 5 59 40 66 100 100 100 100 79 21 1 4 2 1 5 5 5 5 13 84 100 100 100 100 90 100 100 100 100 97 84 100 100 100 97 100 100 100 100 100 100
5 5 5 11 89 99 100 100 100 100 54 1 5 1 3 5 5 5 8 31 96 100 100 100 100 100 99 100 100 100 100 98 41 54 94 100 100 100 100 100 100 100 100
5 5 5 54 100 100 100 100 100 69 9 4 5 4 5 5 5 38 100 91 100 100 100 100 99 100 91 100 100 100 100 98 78 71 96 100 100 100 100 100 100 100 100
5 5 6 6 100 100 100 100 86 32 4 5 5 5 5 5 82 100 61 100 99 100 99 100 100 96 100 100 100 100 100 99 100 100 100 97 100 100 100 100 100 89 85
5 5 6 53 95 100 100 100 16 22 5 5 5 5 13 96 100 90 98 100 100 100 100 100 100 100 84 98 100 100 100 100 100 100 98 100 100 100 100 100 100 100 100
5 5 5 36 99 79 94 86 5 5 5 5 5 42 98 100 100 100 94 100 100 100 100 100 100 100 100 96 100 100 100 100 100 93 100 100 99 99 100 100 100 100 100
5 5 5 78 70 67 16 5 5 5 5 51 66 98 100 100 98 100 100 100 100 100 100 100 100 100 100 99 100 98 98 99 98 98 100 100 100 100 100 100 100 100 100
5 6 6 49 81 68 12 5 6 5 6 78 100 100 100 100 100 100 100 100 99 100 100 100 100 100 100 100 100 100 100 100 100 100 100 100 100 100 100 100 100 100 100
27 52 51 18 79 55 75 6 6 5 69 100 100 100 100 100 100 100 100 100 100 100 100 100 100 100 100 100 100 100 100 100 100 100 100 100 100 100 100 100 100 100 100